FW9638 Weather Reports


Display with metric or nautical units.
time (UTC)temp
F
wind
direction
speed
MPH
gust
MPH
rain 1hr
in
rain 24hr
in
rain mn
in
humidity
%
barometer
mb
20260510060533 70 282 3.0 9.0 0.00 0.01 0.01 53 1030.2
20260510055531 70 275 2.0 7.0 0.00 0.01 0.01 53 1030.1
20260510054530 70 277 2.0 9.0 0.00 0.01 0.01 53 1030.2
20260510053553 70 274 3.0 8.0 0.00 0.01 0.01 54 1030.0
20260510052526 70 272 2.0 7.0 0.00 0.01 0.01 54 1029.9
20260510051524 70 278 3.0 7.0 0.00 0.01 0.01 54 1030.0
20260510050522 70 258 3.0 9.0 0.00 0.01 0.01 54 1029.9
20260510045520 70 261 3.0 10.0 0.00 0.01 0.01 54 1030.0
20260510044539 70 255 3.0 6.0 0.00 0.01 0.01 54 1029.8
20260510043517 70 284 3.0 7.0 0.00 0.01 0.01 55 1029.8
20260510042600 70 268 2.0 6.0 0.00 0.01 0.01 55 1029.8
20260510041559 70 267 2.0 6.0 0.00 0.01 0.01 55 1029.8
20260510040536 70 275 2.0 7.0 0.00 0.01 0.01 55 1029.9
20260510035530 70 230 1.0 3.0 0.00 0.01 0.01 55 1030.0
20260510034528 69 259 3.0 7.0 0.00 0.01 0.01 55 1029.9
20260510033546 69 284 2.0 7.0 0.00 0.01 0.01 55 1030.0
20260510032524 69 281 3.0 9.0 0.00 0.01 0.01 55 1030.1
20260510031522 69 275 3.0 9.0 0.00 0.01 0.01 55 1030.1
20260510030520 69 229 3.0 6.0 0.00 0.01 0.01 55 1030.2
20260510025523 69 257 3.0 6.0 0.00 0.01 0.01 55 1030.4
20260510024517 69 266 4.0 8.0 0.00 0.01 0.01 55 1030.5
20260510023535 69 256 2.0 6.0 0.00 0.01 0.01 56 1030.7
20260510022533 69 265 3.0 6.0 0.00 0.01 0.01 56 1030.7
20260510021618 69 252 2.0 6.0 0.00 0.01 0.01 56 1030.8
20260510020529 69 264 3.0 6.0 0.00 0.01 0.01 56 1031.1
20260510015548 69 249 3.0 8.0 0.00 0.01 0.01 56 1031.2
20260510014546 69 254 2.0 6.0 0.00 0.01 0.01 56 1031.3
20260510013524 69 227 3.0 7.0 0.00 0.01 0.01 56 1031.2
20260510012527 68 263 3.0 8.0 0.00 0.01 0.01 56 1031.5
20260510011520 68 258 1.0 6.0 0.00 0.01 0.01 57 1031.5
20260510010518 68 261 2.0 8.0 0.00 0.01 0.01 57 1031.5
20260510005537 68 285 3.0 14.0 0.00 0.01 0.01 57 1031.5
20260510004535 68 260 3.0 6.0 0.00 0.01 0.01 57 1031.4
20260510003558 68 234 2.0 6.0 0.00 0.01 0.01 57 1031.4
20260510002531 68 272 2.0 6.0 0.00 0.01 0.01 57 1031.5
20260510001534 67 249 3.0 9.0 0.00 0.01 0.01 57 1031.5
20260510000554 67 262 3.0 7.0 0.00 0.01 0.01 57 1031.4
20260509235526 67 264 2.0 4.0 0.00 0.01 0.01 58 1031.5
20260509234549 67 264 2.0 6.0 0.00 0.01 0.01 58 1031.5
20260509233547 67 236 2.0 6.0 0.00 0.01 0.01 58 1031.5
20260509232530 67 267 2.0 6.0 0.00 0.01 0.01 58 1031.4
20260509231518 66 273 3.0 6.0 0.00 0.01 0.01 58 1031.4
20260509230517 66 262 2.0 6.0 0.00 0.01 0.01 58 1031.3
20260509225620 66 268 1.0 3.0 0.00 0.01 0.01 58 1031.3
20260509224558 66 265 2.0 7.0 0.00 0.01 0.01 58 1031.1
20260509223531 66 258 2.0 6.0 0.00 0.01 0.01 59 1031.2
20260509222550 66 266 2.0 6.0 0.00 0.01 0.01 59 1031.0
20260509221527 65 266 1.0 3.0 0.00 0.01 0.01 59 1030.9
20260509220546 65 269 2.0 4.0 0.00 0.01 0.01 59 1030.8
20260509215524 65 273 2.0 3.0 0.00 0.01 0.01 59 1030.6
20260509214522 65 270 2.0 6.0 0.00 0.01 0.01 58 1030.4
20260509213520 65 266 1.0 2.0 0.00 0.01 0.01 58 1030.4
20260509212518 65 265 1.0 3.0 0.00 0.01 0.01 57 1030.3
20260509211516 65 271 2.0 4.0 0.01 0.01 0.01 56 1030.1
20260509210536 65 281 2.0 9.0 0.01 0.01 0.01 55 1030.1
20260509205533 65 280 2.0 6.0 0.01 0.01 0.01 55 1030.0
20260509204551 65 268 1.0 4.0 0.01 0.01 0.01 55 1030.1
20260509203530 65 271 1.0 6.0 0.01 0.01 0.01 55 1029.8
20260509202529 65 271 2.0 4.0 0.01 0.01 0.01 55 1029.8
20260509201525 65 267 1.0 3.0 0.00 0.01 0.00 55 1029.7
20260509200524 65 275 1.0 3.0 0.00 0.01 0.00 55 1029.5
20260509195542 65 0.0 0.0 0.00 0.00 0.00 55 1029.5
20260509194540 65 267 0.0 2.0 0.00 0.00 0.00 55 1029.5
20260509193518 66 266 0.0 2.0 0.00 0.00 0.00 55 1029.4
20260509192538 66 268 1.0 3.0 0.00 0.00 0.00 55 1029.3
20260509191534 66 268 1.0 3.0 0.00 0.00 0.00 55 1029.0
20260509190534 66 270 1.0 3.0 0.00 0.00 0.00 55 1029.0
20260509185531 66 272 1.0 3.0 0.00 0.00 0.00 54 1028.9
20260509184530 66 265 1.0 4.0 0.00 0.00 0.00 54 1028.8
20260509183549 66 270 2.0 7.0 0.00 0.01 0.00 54 1028.7
20260509182527 66 259 0.0 1.0 0.00 0.01 0.00 54 1028.7
20260509181544 66 270 1.0 3.0 0.00 0.01 0.00 54 1028.7
20260509180521 67 264 1.0 3.0 0.00 0.02 0.00 54 1028.6
20260509175520 67 268 1.0 3.0 0.00 0.02 0.00 54 1028.5
20260509174538 67 264 1.0 2.0 0.00 0.02 0.00 54 1028.7
20260509173516 67 265 1.0 3.0 0.00 0.02 0.00 54 1028.6
20260509172536 67 266 1.0 3.0 0.00 0.02 0.00 54 1028.7
20260509171533 67 270 1.0 3.0 0.00 0.02 0.00 54 1028.7
20260509170531 67 275 2.0 6.0 0.00 0.02 0.00 53 1028.7
20260509165529 67 266 1.0 4.0 0.00 0.02 0.00 53 1028.8
20260509164528 68 267 1.0 3.0 0.00 0.02 0.00 53 1028.6
20260509163527 68 272 2.0 4.0 0.00 0.02 0.00 53 1028.7
20260509162523 68 267 1.0 3.0 0.00 0.02 0.00 53 1028.8
20260509161521 68 263 0.0 2.0 0.00 0.02 0.00 53 1028.8
20260509160520 68 264 2.0 3.0 0.00 0.02 0.00 53 1028.8
20260509155539 68 265 1.0 2.0 0.00 0.02 0.00 53 1028.8
20260509154538 68 266 1.0 3.0 0.00 0.02 0.00 52 1028.8
20260509153534 69 268 1.0 3.0 0.00 0.02 0.00 52 1028.9
20260509152532 69 263 1.0 3.0 0.00 0.02 0.00 52 1028.9
20260509151531 69 269 0.0 2.0 0.00 0.02 0.00 52 1028.9
20260509150610 69 270 1.0 3.0 0.00 0.02 0.00 52 1029.0
20260509145527 69 267 1.0 3.0 0.00 0.02 0.00 52 1029.0
20260509144547 69 267 1.0 2.0 0.00 0.02 0.00 52 1028.9
20260509143543 70 268 1.0 3.0 0.00 0.02 0.00 52 1028.8
20260509142523 70 268 1.0 4.0 0.00 0.02 0.00 52 1028.8
20260509141521 70 265 1.0 3.0 0.00 0.02 0.00 52 1028.9
20260509140519 70 261 1.0 2.0 0.00 0.02 0.00 52 1028.9
20260509135516 70 261 0.0 1.0 0.00 0.02 0.02 52 1029.0
20260509134534 70 264 0.0 2.0 0.00 0.02 0.02 52 1029.0
20260509133532 70 257 1.0 2.0 0.00 0.02 0.02 52 1029.0
20260509132530 71 260 1.0 4.0 0.00 0.02 0.02 52 1029.0
20260509131528 71 258 0.0 2.0 0.00 0.02 0.02 52 1029.0
20260509130526 71 256 0.0 1.0 0.00 0.02 0.02 52 1029.1
20260509125525 71 261 1.0 2.0 0.00 0.03 0.02 52 1029.1
20260509124523 71 264 1.0 4.0 0.00 0.03 0.02 52 1029.1
20260509123548 71 261 1.0 3.0 0.00 0.03 0.02 52 1029.1
20260509122519 71 255 0.0 1.0 0.00 0.03 0.02 52 1029.1
20260509121523 71 258 1.0 3.0 0.00 0.04 0.02 52 1029.0
20260509120540 71 255 0.0 1.0 0.00 0.04 0.02 52 1029.0
20260509115534 71 0.0 0.0 0.00 0.04 0.02 52 1029.1
20260509114532 71 246 0.0 1.0 0.00 0.04 0.02 52 1029.0
20260509113530 71 0.0 0.0 0.00 0.04 0.02 52 1028.9
20260509112533 71 0.0 0.0 0.00 0.04 0.02 52 1028.9
20260509111526 71 0.0 0.0 0.00 0.04 0.02 52 1029.0
20260509110525 71 246 0.0 1.0 0.00 0.04 0.02 52 1029.0
20260509105523 71 0.0 0.0 0.00 0.04 0.02 52 1028.8
20260509104521 71 247 0.0 1.0 0.00 0.04 0.02 52 1028.9
20260509103519 71 0.0 0.0 0.00 0.04 0.02 52 1028.8
20260509102607 71 0.0 0.0 0.00 0.04 0.02 52 1028.8
20260509101536 71 0.0 0.0 0.00 0.04 0.02 52 1028.8
20260509100539 71 0.0 0.0 0.00 0.04 0.02 52 1028.7
20260509095532 71 0.0 0.0 0.00 0.04 0.02 52 1028.7
20260509094550 70 0.0 0.0 0.00 0.04 0.02 53 1028.7
20260509093528 70 0.0 0.0 0.00 0.04 0.02 53 1028.6
20260509092551 70 0.0 0.0 0.00 0.04 0.02 53 1028.6
20260509091545 70 269 0.0 1.0 0.00 0.04 0.02 53 1028.7
20260509090523 70 271 0.0 2.0 0.00 0.04 0.02 54 1028.7
20260509085526 70 271 0.0 2.0 0.00 0.04 0.02 54 1028.6
20260509084519 70 290 1.0 4.0 0.00 0.04 0.02 54 1028.5
20260509083518 70 300 1.0 2.0 0.00 0.04 0.02 54 1028.5
20260509082600 70 0.0 0.0 0.00 0.04 0.02 54 1028.3
20260509081539 70 0.0 0.0 0.00 0.04 0.02 54 1028.2
20260509080532 70 0.0 0.0 0.00 0.04 0.02 54 1028.0
20260509075530 70 0.0 0.0 0.00 0.04 0.02 54 1027.9
20260509074538 70 0.0 0.0 0.00 0.04 0.02 54 1027.9
20260509073526 70 307 0.0 1.0 0.00 0.04 0.02 54 1027.7
20260509072524 70 297 0.0 2.0 0.00 0.04 0.02 54 1027.6
20260509071523 70 289 0.0 3.0 0.00 0.04 0.02 55 1027.6
20260509070526 70 285 0.0 3.0 0.00 0.04 0.02 55 1027.6
20260509065519 70 295 1.0 3.0 0.00 0.04 0.02 55 1027.5
20260509064537 70 303 1.0 3.0 0.00 0.04 0.02 55 1027.5
20260509063556 70 296 1.0 4.0 0.00 0.04 0.02 55 1027.3
20260509062559 70 306 0.0 2.0 0.00 0.04 0.02 55 1027.4
20260509061532 70 294 1.0 2.0 0.00 0.04 0.02 55 1027.3